Weather in Siversky

Russia / Saint-Petersburg and Leningrad Oblast     59°21′07″N   30°04′17″E
temp.,
°C
wind,
m/s
gust,
m/s
humid.,
%
clouds,
%
prec.,
mm/h
press.,
hPa
HPBL,
m
15 june, tue
tue1500:00+12sw266543 0.0 1015109
03:00+10s310745 0.0 1013207
06:00+13ssw4136688 0.0 1011436
09:00+18sw61054100 0.0 1009913
12:00+19wsw5862100 0.0 10101395
15:00+21wsw4844100 0.1 10092060
18:00+20wnw4645100 0.0 10091919
21:00+15wnw375699 0.0 1010287
16 june, wed
wed1600:00+13wnw3106367 0.0 1012421
03:00+8wnw38930 0.0 1014169
06:00+11wnw29765 0.0 1016278
09:00+16wnw3648100 0.0 10171045
12:00+20wnw483633 0.0 10181890
15:00+21wnw473358 0.0 10182214
18:00+21nw353777 0.0 10182018
21:00+17w116180 0.0 101925
17 june, thu
thu1700:00+12w11764 0.0 102011
03:00+11w22745 0.0 102216
06:00+13wsw24728 0.0 1023118
09:00+19w354637 0.0 1023703
12:00+23w353440 0.0 10241511
15:00+24w3430100 0.0 10231664
18:00+23wsw3435100 0.0 10241274
21:00+18wsw11588 0.0 102313
18 june, fri
fri1800:00+15ssw226937 0.0 102412
03:00+14ssw23835 0.0 102462
06:00+16ssw28755 0.0 1024200
09:00+22sw365017 0.0 1023609
12:00+26sw57365 0.0 10231837
15:00+28sw57310 0.0 10212041
18:00+27sw47370 0.0 10202044
21:00+22sw25620 0.0 1020131
19 june, sat
sat1900:00+17sw310830 0.0 1021186
03:00+16sw27920 0.0 1022125
06:00+18sw29834 0.0 1022222
09:00+24sw47673 0.3 1022663
12:00+29sw464436 0.1 10212211
15:00+31wsw463625 0.1 10202686
18:00+29wsw354295 0.0 10201829
21:00+24ssw2565100 0.0 1021134